Weather Roundup
Issued by NWS

Home | Current Version | Previous Version | Graphics & Text | Print | Product List | Glossary Off
Versions: 1 2 3 4 5 6 7 8 9 10 11 12 13 14 15 16 17 18 19 20 21 22 23 24 25 26 27 28 29 30 31 32 33 34 35 36 37 38 39 40 41 42 43 44 45 46 47 48 49 50

000
NZUS93 KARX 261110
HRRWXR

CURRENT HOURLY OBSERVATIONS ACROSS
MUCH OF THE UPPER MISSISSIPPI VALLEY
NATIONAL WEATHER SERVICE LA CROSSE WI
600 AM CDT MON SEP 26 2016


...SOUTHEAST MINNESOTA...


CITY           SKY/WX    TMP DP  RH WIND       PRES   REMARKS
ROCHESTER      CLEAR     49  41  74 W12       29.98S
ROCHESTER/MAYO FAIR      50  40  70 W15G24    29.97S
WINONA         CLEAR     52  43  71 W9G16     29.95S
AUSTIN         CLEAR     48  39  71 W9        30.01R
ALBERT LEA     CLEAR     50  39  66 W10G16    30.03R
DODGE CENTER   PTCLDY    46  39  76 W12       29.98S
PRESTON        CLEAR     47  40  74 W10G16    29.99S
OWATONNA       CLEAR     48  39  71 W10       30.00R
FARIBAULT      PTCLDY    52  39  62 W14       29.99R
$$

...ELSEWHERE IN MINNESOTA...


CITY           SKY/WX    TMP DP  RH WIND       PRES   REMARKS
MINNEAPOLIS    PTCLDY    52  40  63 W15G24    29.93S
INTNL FALLS    RAIN      49  47  93 W16G28    29.66R
DULUTH         LGT RAIN  49  47  93 W18G31    29.70S
RED WING       CLEAR     52  41  66 W14       29.92S
REDWOOD FALLS  CLEAR     49  37  63 W16       30.04R
MANKATO        CLEAR     51  38  60 W14       30.02R
WORTHINGTON    CLEAR     44  37  76 W12       30.12S
FAIRMONT       CLEAR     49  38  65 W13       30.07R
$$

...SOUTHWEST WISCONSIN...


CITY           SKY/WX    TMP DP  RH WIND       PRES   REMARKS
LA CROSSE      CLEAR     55  44  66 W10       29.95R
PRAIRIE DU CHI CLEAR     52  42  68 W9        30.00R
BOSCOBEL       CLEAR     52  45  77 SW5       29.99R
LONE ROCK      CLEAR     52  46  80 SW5       29.97S
PLATTEVILLE    CLEAR     51  46  84 W8        30.00S
FORT MC COY    CLEAR     50  46  84 SW3       29.94R
CAMP DOUGLAS   CLEAR     52  44  75 W15G22    29.91S
MAUSTON-NEW LI SUNNY     52  46  78 SW9       29.91S
VIROQUA        FAIR      49  43  81 W8        29.96R
WIS DELLS      CLEAR     51  44  76 W8        29.94R
$$

...ELSEWHERE IN WISCONSIN...


CITY           SKY/WX    TMP DP  RH WIND       PRES   REMARKS
MILWAUKEE      CLOUDY    59  48  67 W9        29.93F
MADISON        PTCLDY    54  47  77 VRB5      29.95R
GREEN BAY      CLOUDY    53  46  77 SW10      29.83S
EAU CLAIRE     CLEAR     50  44  80 SW14      29.87S
BLACK RVR FLS  FAIR      51  43  72 SW8       29.91S
MEDFORD        CLOUDY    50  46  84 W15G23    29.81R
WAUSAU         CLOUDY    51  44  77 W14G29    29.80S
WIS RAPIDS     MOCLDY    52  46  80 W12G23    29.88S
MARSHFIELD     MOCLDY    51  43  74 W14G24    29.84S
RICE LAKE      CLOUDY    51  44  76 SW12      29.85F
$$

...NORTHEAST IOWA...


CITY           SKY/WX    TMP DP  RH WIND       PRES   REMARKS
WATERLOO       CLEAR     50  42  74 W12       30.05R
DUBUQUE        CLEAR     49  45  86 W10       30.03R
DECORAH        CLEAR     48  43  81 VRB6      30.00R
MASON CITY     CLEAR     48  40  73 W14       30.07R
CHARLES CITY   CLEAR     48  43  81 W9G15     30.04S
OELWEIN        CLEAR     48  43  81 W8        30.05S
$$

...ELSEWHERE IN IOWA...


CITY           SKY/WX    TMP DP  RH WIND       PRES   REMARKS
DES MOINES     CLEAR     51  41  68 W7        30.14S
IOWA CITY      CLEAR     50  45  83 W7        30.10S
FORT DODGE     CLEAR     46  37  71 W10       30.12R
MARSHALLTOWN   CLEAR     49  42  77 W9        30.09S
CEDAR RAPIDS   CLEAR     50  46  86 W12       30.07S
$$

...NORTHERN ILLINOIS...


CITY           SKY/WX    TMP DP  RH WIND       PRES   REMARKS
CHICAGO-OHARE  CLOUDY    60  49  66 W10       29.98R
CHICAGO-MIDWAY CLOUDY    61  49  64 W7        29.99R
MOLINE         CLEAR     54  46  74 W8        30.07R
ROCKFORD       CLOUDY    56  49  77 W8        30.02R
PEORIA         CLOUDY    59  51  75 W8        30.09R
$$

NOTE: "FAIR" INDICATES FEW OR NO CLOUDS BELOW 12,000 FEET WITH NO
SIGNIFICANT WEATHER AND/OR OBSTRUCTIONS TO VISIBILITY. WIND
SPEEDS ARE IN MILES-PER-HOUR.




USA.gov is the U.S. government's official web portal to all federal, state and local government web resources and services.